Location: Home
(42.5358°N, 72.7383°W)
Time: 15:09:59
(UTC-05:00)

Vanguard 3 - Pass Details

Date: 05 December 2021
Orbit: 508 x 3260 km, 33.3° (Epoch: 20 January)

Event Time Altitude Azimuth Distance (km) Brightness Sun altitude
Rises 04:15:07 0° 248° (WSW) 7,018 - -30.6°
Reaches altitude 10° 04:19:44 10° 245° (WSW) 6,129 - -29.7°
Exits shadow 04:26:07 26° 239° (WSW) 4,945 10.6 -28.6°
Maximum altitude 04:39:09 61° 172° (S) 3,329 10.1 -26.2°
Drops below altitude 10° 04:54:09 10° 98° (E) 4,889 12.2 -23.4°
Sets 04:57:22 0° 95° (E) 5,586 12.9 -22.9°
